Weather History for Pinedale, WY

Change the Weather History Date:

Friday, September 20, 2013

  Actual Average (KBPI) Record (KBPI)
Temperature  
Mean Temperature 46 °F 48 °F  
Max Temperature 64 °F 66 °F 78 °F (2012)
Min Temperature 28 °F 30 °F 18 °F (1978)
Degree Days  
Heating Degree Days 19 17  
Month to date heating degree days 268  
Since 1 July heating degree days 561  
Cooling Degree Days 0 0  
Month to date cooling degree days 0  
Year to date cooling degree days 35  
Moisture  
Dew Point 28 °F    
Average Humidity 61    
Maximum Humidity 100    
Minimum Humidity 18    
Precipitation  
Precipitation 0.00 in 0.03 in 0.40 in (1989)
Month to date precipitation 0.51  
Year to date precipitation 5.17  
Sea Level Pressure  
Sea Level Pressure 30.20 in    
Wind  
Wind Speed 4 mph (WNW)    
Max Wind Speed 9 mph    
Max Gust Speed -    
Visibility 10 miles    
Events      
T = Trace of Precipitation, MM = Missing Value Source: NWS Daily Summary

Daily Weather History Graph

Daily Weather History Graph

Search for Another Location

Airport:

Trip Planner

Search our weather history database for the weather conditions in past years. The results will help you decide how hot, cold, wet, or windy it might be!

Date:

Astronomy

Sep. 20, 2013 Rise Set
Actual Time 7:04 AM MDT 7:19 PM MDT
Civil Twilight 6:36 AM MDT 7:47 PM MDT
Nautical Twilight 6:03 AM MDT 8:20 PM MDT
Astronomical Twilight 5:29 AM MDT 8:54 PM MDT
Moon 7:51 PM MDT (9/20) 8:25 AM MDT (9/20)
Length of Visible Light 13h 11m
Length of Day
12h 14m
Full, 98% of the Moon is Illuminated
Sep 20
Full
Sep 26
Last Quarter
Oct 4
New
Oct 11
First Quarter
Oct 18
Full

Hourly Weather History & Observations

Time (MDT) Temp. Windchill Dew Point Humidity Pressure Visibility Wind Dir Wind Speed Gust Speed Precip Events Conditions
12:15 AM 32.0 °F 25.6 °F 32.0 °F 100% 30.26 in 10.0 mi WNW 6.9 mph - N/A   Clear
12:35 AM 32.0 °F 26.4 °F 32.0 °F 100% 30.26 in 10.0 mi NW 5.8 mph - N/A   Clear
12:55 AM 32.0 °F 26.4 °F 32.0 °F 100% 30.26 in 10.0 mi NW 5.8 mph - N/A   Clear
1:15 AM 32.0 °F 27.5 °F 30.2 °F 93% 30.26 in 10.0 mi NW 4.6 mph - N/A   Clear
1:35 AM 32.0 °F 26.4 °F 30.2 °F 93% 30.26 in 10.0 mi NW 5.8 mph - N/A   Clear
1:55 AM 32.0 °F 27.5 °F 30.2 °F 93% 30.27 in 10.0 mi West 4.6 mph - N/A   Clear
2:15 AM 32.0 °F 27.5 °F 30.2 °F 93% 30.27 in 10.0 mi West 4.6 mph - N/A   Clear
2:35 AM 32.0 °F 25.6 °F 30.2 °F 93% 30.27 in 10.0 mi West 6.9 mph - N/A   Clear
2:55 AM 32.0 °F 28.7 °F 30.2 °F 93% 30.27 in 10.0 mi West 3.5 mph - N/A   Clear
3:15 AM 30.2 °F 25.4 °F 30.2 °F 100% 30.26 in 10.0 mi West 4.6 mph - N/A   Clear
3:35 AM 30.2 °F 25.4 °F 30.2 °F 100% 30.27 in 10.0 mi West 4.6 mph - N/A   Clear
3:55 AM 30.2 °F 23.4 °F 28.4 °F 93% 30.26 in 10.0 mi WNW 6.9 mph - N/A   Clear
4:15 AM 30.2 °F 25.4 °F 28.4 °F 93% 30.26 in 10.0 mi WNW 4.6 mph - N/A   Clear
4:35 AM 28.4 °F 22.2 °F 28.4 °F 100% 30.26 in 10.0 mi WNW 5.8 mph - N/A   Clear
4:55 AM 28.4 °F 21.2 °F 28.4 °F 100% 30.26 in 10.0 mi WNW 6.9 mph - N/A   Clear
5:15 AM 28.4 °F 22.2 °F 28.4 °F 100% 30.26 in 10.0 mi West 5.8 mph - N/A   Clear
5:35 AM 28.4 °F 20.4 °F 28.4 °F 100% 30.26 in 10.0 mi West 8.1 mph - N/A   Clear
5:55 AM 28.4 °F 20.4 °F 28.4 °F 100% 30.26 in 10.0 mi WNW 8.1 mph - N/A   Clear
6:15 AM 28.4 °F 20.4 °F 28.4 °F 100% 30.26 in 10.0 mi WNW 8.1 mph - N/A   Clear
6:35 AM 28.4 °F 21.2 °F 26.6 °F 93% 30.26 in 10.0 mi West 6.9 mph - N/A   Clear
6:55 AM 28.4 °F 22.2 °F 28.4 °F 100% 30.26 in 10.0 mi West 5.8 mph - N/A   Clear
7:15 AM 28.4 °F 21.2 °F 28.4 °F 100% 30.26 in 10.0 mi WNW 6.9 mph - N/A   Clear
7:35 AM 30.2 °F 25.4 °F 28.4 °F 93% 30.26 in 10.0 mi WNW 4.6 mph - N/A   Clear
7:55 AM 32.0 °F 26.4 °F 30.2 °F 93% 30.27 in 10.0 mi NW 5.8 mph - N/A   Clear
8:15 AM 32.0 °F 24.8 °F 30.2 °F 93% 30.27 in 10.0 mi WNW 8.1 mph - N/A   Clear
8:35 AM 33.8 °F 26.4 °F 30.2 °F 87% 30.27 in 10.0 mi WNW 9.2 mph - N/A   Clear
8:55 AM 35.6 °F 30.7 °F 30.2 °F 81% 30.27 in 10.0 mi WNW 5.8 mph - N/A   Clear
9:15 AM 37.4 °F - 32.0 °F 81% 30.27 in 10.0 mi Calm Calm - N/A   Clear
9:35 AM 42.8 °F 41.1 °F 32.0 °F 66% 30.27 in 10.0 mi WNW 3.5 mph - N/A   Clear
9:55 AM 44.6 °F 43.1 °F 32.0 °F 61% 30.27 in 10.0 mi WNW 3.5 mph - N/A   Clear
10:15 AM 48.2 °F - 32.0 °F 54% 30.27 in 10.0 mi Calm Calm - N/A   Clear
10:35 AM 50.0 °F - 30.2 °F 47% 30.26 in 10.0 mi Calm Calm - N/A   Clear
10:55 AM 53.6 °F - 26.6 °F 35% 30.25 in 10.0 mi Calm Calm - N/A   Clear
11:15 AM 53.6 °F - 21.2 °F 28% 30.24 in 10.0 mi Calm Calm - N/A   Clear
11:35 AM 55.4 °F - 23.0 °F 29% 30.24 in 10.0 mi Calm Calm - N/A   Clear
11:55 AM 55.4 °F - 23.0 °F 29% 30.23 in 10.0 mi Calm Calm - N/A   Clear
12:15 PM 57.2 °F - 23.0 °F 27% 30.22 in 10.0 mi Calm Calm - N/A   Clear
12:35 PM 59.0 °F - 23.0 °F 25% 30.21 in 10.0 mi Calm Calm - N/A   Clear
12:55 PM 59.0 °F - 23.0 °F 25% 30.21 in 10.0 mi WSW 5.8 mph - N/A   Clear
1:15 PM 59.0 °F - 21.2 °F 23% 30.21 in 10.0 mi South 3.5 mph - N/A   Clear
1:35 PM 60.8 °F - 19.4 °F 20% 30.20 in 10.0 mi Calm Calm - N/A   Clear
1:55 PM 60.8 °F - 21.2 °F 22% 30.19 in 10.0 mi Calm Calm - N/A   Clear
2:15 PM 62.6 °F - 19.4 °F 19% 30.18 in 10.0 mi ESE 4.6 mph - N/A   Clear
2:35 PM 62.6 °F - 21.2 °F 20% 30.18 in 10.0 mi Calm Calm - N/A   Clear
2:55 PM 62.6 °F - 17.6 °F 18% 30.17 in 10.0 mi Calm Calm - N/A   Clear
3:15 PM 62.6 °F - 17.6 °F 18% 30.16 in 10.0 mi SE 3.5 mph - N/A   Clear
3:35 PM 62.6 °F - 19.4 °F 19% 30.16 in 10.0 mi SSW 4.6 mph - N/A   Clear
3:55 PM 64.4 °F - 19.4 °F 18% 30.14 in 10.0 mi SSE 4.6 mph - N/A   Clear
4:15 PM 64.4 °F - 19.4 °F 18% 30.14 in 10.0 mi ESE 4.6 mph - N/A   Clear
4:35 PM 64.4 °F - 19.4 °F 18% 30.13 in 10.0 mi Calm Calm - N/A   Clear
4:55 PM 64.4 °F - 21.2 °F 19% 30.13 in 10.0 mi East 4.6 mph - N/A   Clear
5:15 PM 64.4 °F - 21.2 °F 19% 30.13 in 10.0 mi East 3.5 mph - N/A   Clear
5:35 PM 64.4 °F - 21.2 °F 19% 30.13 in 7.0 mi East 4.6 mph - N/A   Clear
5:55 PM 64.4 °F - 21.2 °F 19% 30.13 in 10.0 mi ENE 3.5 mph - N/A   Clear
6:15 PM 64.4 °F - 23.0 °F 21% 30.13 in 10.0 mi ESE 4.6 mph - N/A   Clear
6:35 PM 62.6 °F - 23.0 °F 22% 30.11 in 10.0 mi East 3.5 mph - N/A   Clear
6:55 PM 60.8 °F - 28.4 °F 29% 30.11 in 10.0 mi East 4.6 mph - N/A   Clear
7:15 PM 59.0 °F - 30.2 °F 34% 30.11 in 10.0 mi East 3.5 mph - N/A   Clear
7:35 PM 55.4 °F - 32.0 °F 41% 30.11 in 10.0 mi Calm Calm - N/A   Clear
7:55 PM 51.8 °F - 32.0 °F 47% 30.11 in 10.0 mi Calm Calm - N/A   Clear
8:15 PM 53.6 °F - 32.0 °F 44% 30.11 in 10.0 mi Calm Calm - N/A   Clear
8:35 PM 50.0 °F - 32.0 °F 50% 30.12 in 10.0 mi Calm Calm - N/A   Clear
8:55 PM 50.0 °F - 32.0 °F 50% 30.13 in 10.0 mi Calm Calm - N/A   Clear
9:15 PM 44.6 °F - 32.0 °F 61% 30.13 in 10.0 mi Calm Calm - N/A   Clear
9:35 PM 44.6 °F - 32.0 °F 61% 30.13 in 10.0 mi Calm Calm - N/A   Clear
9:55 PM 44.6 °F - 32.0 °F 61% 30.13 in 10.0 mi Calm Calm - N/A   Clear
10:15 PM 39.2 °F 35.9 °F 32.0 °F 75% 30.13 in 10.0 mi NW 4.6 mph - N/A   Clear
10:35 PM 39.2 °F 35.9 °F 33.8 °F 81% 30.13 in 10.0 mi West 4.6 mph - N/A   Clear
10:55 PM 37.4 °F 34.9 °F 33.8 °F 87% 30.13 in 10.0 mi WNW 3.5 mph - N/A   Clear
11:15 PM 37.4 °F - 33.8 °F 87% 30.13 in 10.0 mi Calm Calm - N/A   Clear
11:35 PM 35.6 °F 31.7 °F 33.8 °F 93% 30.13 in 10.0 mi WNW 4.6 mph - N/A   Clear
11:55 PM 35.6 °F 31.7 °F 33.8 °F 93% 30.13 in 10.0 mi WNW 4.6 mph - N/A   Clear